When you browse on this site, cookies collect data to enhance your experience and personalize the content and advertising you see.
Visit our Privacy Policy to learn more. By continuing to use the site, you agree to this use of cookies and data.
  • în România
  • Lista ţărilor
  • Pe 7 zile
  • Temperatura apei
  • Meteo pe hartă
  • Widget-uri
  • user-avatar
    Intrare

    Meteo pe oră la Hartford

    Astăzi, 5 Iunie, Vineri

    Timp Temperatura Precipitaţii Vânt Presiune Umiditate
    00:00 +8°C° 0 mm 5 m/s 744 mmHg 87%
    01:00 +8°C° 0.1 mm 5 m/s 744 mmHg 87%
    02:00 +8°C° 0.1 mm 5 m/s 744 mmHg 86%
    03:00 +7°C° 0.1 mm 5 m/s 743 mmHg 86%
    04:00 +8°C° 0.3 mm 5 m/s 743 mmHg 86%
    05:00 +8°C° 0.3 mm 4 m/s 743 mmHg 85%
    06:00 +8°C° 0.3 mm 4 m/s 743 mmHg 85%
    07:00 +8°C° 0.5 mm 4 m/s 743 mmHg 82%
    08:00 +8°C° 0.5 mm 5 m/s 743 mmHg 79%
    09:00 +9°C° 0.5 mm 6 m/s 743 mmHg 76%
    10:00 +10°C° 0.2 mm 7 m/s 743 mmHg 68%
    11:00 +11°C° 0.2 mm 8 m/s 743 mmHg 59%
    12:00 +12°C° 0.2 mm 9 m/s 743 mmHg 51%
    13:00 +12°C° 0 mm 9 m/s 743 mmHg 50%
    14:00 +12°C° 0 mm 9 m/s 743 mmHg 49%
    15:00 +12°C° 0 mm 10 m/s 743 mmHg 49%
    16:00 +11°C° 0 mm 10 m/s 743 mmHg 50%
    17:00 +11°C° 0 mm 9 m/s 743 mmHg 52%
    18:00 +10°C° 0 mm 9 m/s 743 mmHg 53%
    19:00 +9°C° 0 mm 8 m/s 743 mmHg 57%
    20:00 +7°C° 0 mm 8 m/s 743 mmHg 60%
    21:00 +6°C° 0 mm 7 m/s 743 mmHg 63%
    22:00 +6°C° 0 mm 8 m/s 743 mmHg 65%
    23:00 +6°C° 0 mm 8 m/s 743 mmHg 66%

    Mâine, 6 Iunie, Sâmbătă

    Timp Temperatura Precipitaţii Vânt Presiune Umiditate
    00:00 +6°C° 0 mm 9 m/s 742 mmHg 68%
    01:00 +6°C° 0.4 mm 9 m/s 742 mmHg 74%
    02:00 +6°C° 0.4 mm 9 m/s 741 mmHg 81%
    03:00 +5°C° 0.4 mm 9 m/s 741 mmHg 87%
    04:00 +6°C° 1.3 mm 8 m/s 740 mmHg 88%
    05:00 +7°C° 1.3 mm 8 m/s 740 mmHg 89%
    06:00 +9°C° 1.3 mm 7 m/s 739 mmHg 90%
    07:00 +10°C° 0.4 mm 7 m/s 740 mmHg 85%
    08:00 +10°C° 0.4 mm 7 m/s 740 mmHg 81%
    09:00 +11°C° 0.4 mm 7 m/s 740 mmHg 77%
    10:00 +12°C° 0.2 mm 7 m/s 741 mmHg 70%
    11:00 +14°C° 0.2 mm 7 m/s 741 mmHg 64%
    12:00 +15°C° 0.2 mm 8 m/s 742 mmHg 58%
    13:00 +15°C° 0.5 mm 7 m/s 742 mmHg 60%
    14:00 +15°C° 0.5 mm 7 m/s 743 mmHg 63%
    15:00 +15°C° 0.5 mm 7 m/s 743 mmHg 66%
    16:00 +15°C° 0.3 mm 6 m/s 744 mmHg 67%
    17:00 +14°C° 0.3 mm 6 m/s 744 mmHg 68%
    18:00 +14°C° 0.3 mm 5 m/s 745 mmHg 69%
    19:00 +13°C° 0 mm 4 m/s 746 mmHg 73%
    20:00 +12°C° 0 mm 4 m/s 746 mmHg 78%
    21:00 +11°C° 0 mm 3 m/s 747 mmHg 82%
    22:00 +11°C° 0.1 mm 3 m/s 747 mmHg 85%
    23:00 +10°C° 0.1 mm 3 m/s 748 mmHg 88%

    Poimâine, 7 Iunie, Duminică

    Timp Temperatura Precipitaţii Vânt Presiune Umiditate
    00:00 +10°C° 0.1 mm 3 m/s 748 mmHg 91%
    01:00 +10°C° 0.1 mm 3 m/s 748 mmHg 91%
    02:00 +10°C° 0.1 mm 3 m/s 748 mmHg 92%
    03:00 +10°C° 0.1 mm 3 m/s 748 mmHg 92%
    04:00 +11°C° 0.1 mm 3 m/s 749 mmHg 91%
    05:00 +11°C° 0.1 mm 3 m/s 749 mmHg 90%
    06:00 +11°C° 0.1 mm 3 m/s 749 mmHg 89%
    07:00 +12°C° 0.2 mm 4 m/s 750 mmHg 86%
    08:00 +13°C° 0.2 mm 4 m/s 750 mmHg 82%
    09:00 +14°C° 0.2 mm 4 m/s 751 mmHg 78%
    10:00 +14°C° 0.4 mm 4 m/s 752 mmHg 77%
    11:00 +14°C° 0.4 mm 4 m/s 752 mmHg 76%
    12:00 +15°C° 0.4 mm 5 m/s 752 mmHg 75%
    13:00 +14°C° 0.2 mm 4 m/s 753 mmHg 75%
    14:00 +14°C° 0.2 mm 4 m/s 753 mmHg 75%
    15:00 +14°C° 0.2 mm 4 m/s 754 mmHg 75%
    16:00 +14°C° 0.2 mm 4 m/s 754 mmHg 75%
    17:00 +14°C° 0.2 mm 4 m/s 754 mmHg 74%
    18:00 +14°C° 0.2 mm 3 m/s 755 mmHg 74%
    19:00 +13°C° 0.1 mm 3 m/s 756 mmHg 76%
    20:00 +12°C° 0.1 mm 3 m/s 756 mmHg 77%
    21:00 +12°C° 0.1 mm 2 m/s 757 mmHg 79%
    22:00 +12°C° 0.1 mm 2 m/s 757 mmHg 79%
    23:00 +10°C° 0.1 mm 2 m/s 757 mmHg 78%

    8 Iunie, Luni

    Timp Temperatura Precipitaţii Vânt Presiune Umiditate
    00:00 +11°C° 0.1 mm 1 m/s 758 mmHg 78%
    01:00 +10°C° 0 mm 1 m/s 758 mmHg 77%
    02:00 +10°C° 0 mm 1 m/s 758 mmHg 76%
    03:00 +10°C° 0 mm 1 m/s 758 mmHg 76%
    04:00 +10°C° 0 mm 1 m/s 759 mmHg 75%
    05:00 +10°C° 0 mm 1 m/s 759 mmHg 74%
    06:00 +10°C° 0 mm 1 m/s 759 mmHg 73%
    07:00 +10°C° 0 mm 1 m/s 759 mmHg 69%
    08:00 +10°C° 0 mm 2 m/s 760 mmHg 65%
    09:00 +12°C° 0 mm 2 m/s 760 mmHg 60%
    10:00 +13°C° 0 mm 2 m/s 760 mmHg 57%
    11:00 +14°C° 0 mm 2 m/s 760 mmHg 54%
    12:00 +15°C° 0 mm 2 m/s 760 mmHg 51%
    13:00 +15°C° 0 mm 2 m/s 760 mmHg 52%
    14:00 +16°C° 0 mm 3 m/s 760 mmHg 52%
    15:00 +16°C° 0 mm 3 m/s 760 mmHg 53%
    16:00 +14°C° 0 mm 3 m/s 761 mmHg 56%
    17:00 +14°C° 0 mm 3 m/s 761 mmHg 58%
    18:00 +13°C° 0 mm 3 m/s 761 mmHg 61%
    19:00 +12°C° 0 mm 3 m/s 761 mmHg 64%
    20:00 +12°C° 0 mm 2 m/s 762 mmHg 68%
    21:00 +9°C° 0 mm 2 m/s 762 mmHg 71%
    22:00 +9°C° 0 mm 2 m/s 762 mmHg 71%
    23:00 +9°C° 0 mm 2 m/s 762 mmHg 71%

    9 Iunie, Marţi

    Timp Temperatura Precipitaţii Vânt Presiune Umiditate
    00:00 +9°C° 0 mm 1 m/s 763 mmHg 71%
    01:00 +8°C° 0 mm 1 m/s 763 mmHg 73%
    02:00 +8°C° 0 mm 1 m/s 762 mmHg 75%
    03:00 +7°C° 0 mm 1 m/s 762 mmHg 77%
    04:00 +8°C° 0 mm 1 m/s 763 mmHg 75%
    05:00 +9°C° 0 mm 1 m/s 763 mmHg 72%
    06:00 +10°C° 0 mm 1 m/s 763 mmHg 70%
    07:00 +11°C° 0 mm 1 m/s 763 mmHg 64%
    08:00 +12°C° 0 mm 1 m/s 763 mmHg 58%
    09:00 +14°C° 0 mm 2 m/s 763 mmHg 53%
    10:00 +15°C° 0 mm 2 m/s 763 mmHg 50%
    11:00 +16°C° 0 mm 2 m/s 763 mmHg 48%
    12:00 +17°C° 0 mm 2 m/s 763 mmHg 45%
    13:00 +18°C° 0 mm 1 m/s 763 mmHg 45%
    14:00 +18°C° 0 mm 1 m/s 763 mmHg 46%
    15:00 +18°C° 0 mm 1 m/s 763 mmHg 46%
    16:00 +17°C° 0 mm 2 m/s 763 mmHg 51%
    17:00 +16°C° 0 mm 2 m/s 763 mmHg 56%
    18:00 +16°C° 0 mm 2 m/s 763 mmHg 60%
    19:00 +15°C° 0 mm 2 m/s 763 mmHg 65%
    20:00 +13°C° 0 mm 2 m/s 764 mmHg 69%
    21:00 +12°C° 0 mm 2 m/s 764 mmHg 74%
    22:00 +10°C° 0 mm 2 m/s 764 mmHg 76%
    23:00 +9°C° 0 mm 2 m/s 764 mmHg 78%

    10 Iunie, Miercuri

    Timp Temperatura Precipitaţii Vânt Presiune Umiditate
    00:00 +8°C° 0 mm 2 m/s 764 mmHg 80%
    01:00 +8°C° 0 mm 2 m/s 764 mmHg 81%
    02:00 +9°C° 0 mm 1 m/s 764 mmHg 82%
    03:00 +9°C° 0 mm 1 m/s 764 mmHg 83%
    04:00 +9°C° 0 mm 1 m/s 764 mmHg 81%
    05:00 +10°C° 0 mm 1 m/s 765 mmHg 79%
    06:00 +11°C° 0 mm 1 m/s 765 mmHg 77%
    07:00 +13°C° 0 mm 1 m/s 765 mmHg 71%
    08:00 +15°C° 0 mm 1 m/s 765 mmHg 66%
    09:00 +16°C° 0 mm 1 m/s 765 mmHg 60%
    10:00 +18°C° 0 mm 1 m/s 765 mmHg 56%
    11:00 +20°C° 0 mm 1 m/s 765 mmHg 52%
    12:00 +21°C° 0 mm 1 m/s 765 mmHg 48%
    13:00 +21°C° 0 mm 1 m/s 764 mmHg 48%
    14:00 +21°C° 0 mm 1 m/s 764 mmHg 48%
    15:00 +20°C° 0 mm 2 m/s 764 mmHg 48%
    16:00 +19°C° 0 mm 2 m/s 764 mmHg 51%
    17:00 +18°C° 0 mm 3 m/s 764 mmHg 54%
    18:00 +18°C° 0 mm 3 m/s 764 mmHg 57%
    19:00 +16°C° 0 mm 3 m/s 764 mmHg 60%
    20:00 +14°C° 0 mm 2 m/s 765 mmHg 63%
    21:00 +13°C° 0 mm 2 m/s 765 mmHg 66%
    22:00 +12°C° 0 mm 2 m/s 765 mmHg 69%
    23:00 +11°C° 0 mm 1 m/s 765 mmHg 71%
    Arată mai mult